Location: Sungai Buloh
(3.1000°N, 113.0000°E)
Time: 16:03:49
(UTC+00:00)

Meteor 2-10 Rocket - Pass Details

Date: 12 January 2026
Orbit: 733 x 881 km, 81.2° (Epoch: 10 February)

Event Time Altitude Azimuth Distance (km) Brightness Sun altitude
Rises 21:36:50 0° 177° (S) 3,170 7.0 -15.0°
Reaches altitude 10° 21:39:12 10° 173° (S) 2,237 6.3 -14.5°
Maximum altitude 21:44:06 58° 95° (E) 854 4.1 -13.3°
Drops below altitude 10° 21:49:00 10° 16° (NNE) 2,234 5.9 -12.2°
Sets 21:51:21 0° 13° (NNE) 3,164 6.6 -11.6°
